When you browse on this site, cookies collect data to enhance your experience and personalize the content and advertising you see.
Visit our Privacy Policy to learn more. By continuing to use the site, you agree to this use of cookies and data.
  • In Slovakia
  • List of Countries
  • For 7 days
  • Water Temperature
  • Satellite Maps
  • Weather Map
  • Weather Widgets
  • user-avatar
    Login

    Hourly Weather Goleszyn

    Today, 22 April, Monday

    Time Temperature Precipitation Wind Pressure Humidity
    00:00 +4°C° 0 mm 3 mps 753 mmHg 86%
    01:00 +4°C° 0 mm 3 mps 753 mmHg 85%
    02:00 +3°C° 0 mm 3 mps 754 mmHg 87%
    03:00 +3°C° 0 mm 4 mps 754 mmHg 90%
    04:00 +3°C° 0 mm 4 mps 754 mmHg 93%
    05:00 +3°C° 0 mm 5 mps 754 mmHg 89%
    06:00 +6°C° 0 mm 5 mps 754 mmHg 85%
    07:00 +7°C° 0 mm 6 mps 754 mmHg 81%
    08:00 +8°C° 0 mm 6 mps 754 mmHg 78%
    09:00 +9°C° 0 mm 6 mps 754 mmHg 76%
    10:00 +10°C° 0 mm 6 mps 755 mmHg 73%
    11:00 +13°C° 0 mm 6 mps 755 mmHg 66%
    12:00 +15°C° 0 mm 7 mps 754 mmHg 59%
    13:00 +17°C° 0 mm 7 mps 754 mmHg 52%
    14:00 +17°C° 0 mm 7 mps 754 mmHg 52%
    15:00 +17°C° 0 mm 7 mps 754 mmHg 51%
    16:00 +17°C° 0 mm 7 mps 754 mmHg 51%
    17:00 +15°C° 0 mm 7 mps 754 mmHg 54%
    18:00 +14°C° 0 mm 6 mps 754 mmHg 57%
    19:00 +12°C° 0 mm 5 mps 755 mmHg 61%
    20:00 +10°C° 0 mm 5 mps 755 mmHg 59%
    21:00 +10°C° 0 mm 6 mps 755 mmHg 58%
    22:00 +9°C° 0 mm 6 mps 756 mmHg 57%
    23:00 +9°C° 0 mm 6 mps 756 mmHg 56%

    Tomorrow, 23 April, Tuesday

    Time Temperature Precipitation Wind Pressure Humidity
    00:00 +8°C° 0 mm 6 mps 755 mmHg 55%
    01:00 +8°C° 0 mm 6 mps 755 mmHg 54%
    02:00 +8°C° 0 mm 7 mps 755 mmHg 54%
    03:00 +6°C° 0 mm 7 mps 755 mmHg 54%
    04:00 +6°C° 0 mm 7 mps 755 mmHg 54%
    05:00 +7°C° 0 mm 8 mps 755 mmHg 53%
    06:00 +8°C° 0 mm 9 mps 755 mmHg 52%
    07:00 +10°C° 0 mm 9 mps 755 mmHg 51%
    08:00 +11°C° 0 mm 10 mps 755 mmHg 48%
    09:00 +12°C° 0 mm 11 mps 754 mmHg 45%
    10:00 +13°C° 0 mm 11 mps 754 mmHg 42%
    11:00 +14°C° 0 mm 11 mps 754 mmHg 41%
    12:00 +16°C° 0 mm 11 mps 754 mmHg 41%
    13:00 +16°C° 0 mm 11 mps 753 mmHg 40%
    14:00 +16°C° 0 mm 11 mps 753 mmHg 41%
    15:00 +16°C° 0 mm 11 mps 752 mmHg 43%
    16:00 +16°C° 0 mm 10 mps 752 mmHg 44%
    17:00 +15°C° 0 mm 9 mps 752 mmHg 47%
    18:00 +13°C° 0 mm 8 mps 752 mmHg 49%
    19:00 +12°C° 0 mm 7 mps 752 mmHg 51%
    20:00 +11°C° 0 mm 8 mps 752 mmHg 51%
    21:00 +11°C° 0 mm 8 mps 752 mmHg 50%
    22:00 +11°C° 0 mm 8 mps 752 mmHg 50%
    23:00 +10°C° 0 mm 8 mps 752 mmHg 51%

    Day after tomorrow, 24 April, Wednesday

    Time Temperature Precipitation Wind Pressure Humidity
    00:00 +10°C° 0 mm 8 mps 752 mmHg 52%
    01:00 +10°C° 0 mm 8 mps 752 mmHg 52%
    02:00 +10°C° 0 mm 8 mps 752 mmHg 54%
    03:00 +9°C° 0 mm 8 mps 751 mmHg 56%
    04:00 +8°C° 0 mm 9 mps 751 mmHg 58%
    05:00 +8°C° 0 mm 9 mps 751 mmHg 59%
    06:00 +10°C° 0 mm 9 mps 751 mmHg 60%
    07:00 +9°C° 0 mm 10 mps 751 mmHg 61%
    08:00 +11°C° 0 mm 9 mps 751 mmHg 59%
    09:00 +13°C° 0 mm 9 mps 751 mmHg 57%
    10:00 +15°C° 0 mm 9 mps 751 mmHg 56%
    11:00 +16°C° 0 mm 9 mps 751 mmHg 54%
    12:00 +18°C° 0 mm 9 mps 751 mmHg 53%
    13:00 +19°C° 0 mm 9 mps 751 mmHg 52%
    14:00 +19°C° 0 mm 9 mps 751 mmHg 54%
    15:00 +20°C° 0 mm 8 mps 750 mmHg 56%
    16:00 +20°C° 0 mm 8 mps 750 mmHg 57%
    17:00 +18°C° 0 mm 7 mps 750 mmHg 61%
    18:00 +17°C° 0 mm 7 mps 750 mmHg 64%
    19:00 +15°C° 0 mm 6 mps 750 mmHg 67%
    20:00 +15°C° 0 mm 6 mps 750 mmHg 70%
    21:00 +14°C° 0 mm 5 mps 751 mmHg 72%
    22:00 +13°C° 0 mm 5 mps 751 mmHg 75%
    23:00 +13°C° 0 mm 5 mps 751 mmHg 77%

    25 April, Thursday

    Time Temperature Precipitation Wind Pressure Humidity
    00:00 +12°C° 0 mm 5 mps 751 mmHg 80%
    01:00 +12°C° 0 mm 5 mps 751 mmHg 82%
    02:00 +10°C° 0 mm 5 mps 751 mmHg 84%
    03:00 +10°C° 0 mm 5 mps 751 mmHg 86%
    04:00 +10°C° 0 mm 5 mps 751 mmHg 88%
    05:00 +12°C° 0 mm 5 mps 751 mmHg 84%
    06:00 +13°C° 0 mm 6 mps 751 mmHg 81%
    07:00 +14°C° 0 mm 6 mps 751 mmHg 77%
    08:00 +16°C° 0 mm 6 mps 751 mmHg 72%
    09:00 +17°C° 0 mm 6 mps 751 mmHg 67%
    10:00 +20°C° 0 mm 6 mps 751 mmHg 62%
    11:00 +22°C° 0 mm 6 mps 751 mmHg 58%
    12:00 +23°C° 0 mm 6 mps 750 mmHg 54%
    13:00 +24°C° 0 mm 6 mps 750 mmHg 50%
    14:00 +23°C° 0 mm 5 mps 750 mmHg 53%
    15:00 +23°C° 0 mm 4 mps 750 mmHg 56%
    16:00 +22°C° 0 mm 3 mps 750 mmHg 59%
    17:00 +21°C° 0 mm 2 mps 750 mmHg 63%
    18:00 +20°C° 0 mm 2 mps 750 mmHg 68%
    19:00 +18°C° 0 mm 2 mps 750 mmHg 73%
    20:00 +18°C° 0 mm 2 mps 750 mmHg 72%
    21:00 +18°C° 0 mm 2 mps 750 mmHg 72%
    22:00 +18°C° 0 mm 2 mps 750 mmHg 72%
    23:00 +17°C° 0 mm 2 mps 750 mmHg 76%

    26 April, Friday

    Time Temperature Precipitation Wind Pressure Humidity
    00:00 +16°C° 0 mm 2 mps 750 mmHg 80%
    01:00 +15°C° 0 mm 2 mps 749 mmHg 83%
    02:00 +15°C° 0 mm 2 mps 749 mmHg 84%
    03:00 +15°C° 0 mm 2 mps 749 mmHg 84%
    04:00 +13°C° 0 mm 3 mps 749 mmHg 84%
    05:00 +16°C° 0.2 mm 3 mps 748 mmHg 81%
    06:00 +17°C° 0.2 mm 3 mps 748 mmHg 78%
    07:00 +18°C° 0.2 mm 4 mps 748 mmHg 75%
    08:00 +19°C° 0 mm 4 mps 747 mmHg 72%
    09:00 +20°C° 0 mm 4 mps 747 mmHg 69%
    10:00 +22°C° 0 mm 4 mps 747 mmHg 65%
    11:00 +23°C° 0 mm 4 mps 746 mmHg 60%
    12:00 +25°C° 0 mm 5 mps 746 mmHg 54%
    13:00 +27°C° 0 mm 5 mps 746 mmHg 48%
    14:00 +27°C° 0 mm 5 mps 745 mmHg 48%
    15:00 +27°C° 0 mm 5 mps 745 mmHg 47%
    16:00 +27°C° 0 mm 4 mps 745 mmHg 47%
    17:00 +25°C° 0 mm 4 mps 745 mmHg 52%
    18:00 +22°C° 0 mm 4 mps 744 mmHg 57%
    19:00 +21°C° 0 mm 4 mps 744 mmHg 63%
    20:00 +20°C° 0.1 mm 4 mps 745 mmHg 65%
    21:00 +19°C° 0.1 mm 4 mps 745 mmHg 68%
    22:00 +18°C° 0.1 mm 4 mps 745 mmHg 71%
    23:00 +17°C° 0 mm 4 mps 745 mmHg 78%

    27 April, Saturday

    Time Temperature Precipitation Wind Pressure Humidity
    00:00 +15°C° 0 mm 5 mps 746 mmHg 85%
    01:00 +15°C° 0 mm 5 mps 746 mmHg 92%
    02:00 +14°C° 0.5 mm 5 mps 746 mmHg 92%
    03:00 +14°C° 0.5 mm 5 mps 747 mmHg 91%
    04:00 +14°C° 0.5 mm 6 mps 748 mmHg 90%
    05:00 +13°C° 0.1 mm 6 mps 748 mmHg 90%
    06:00 +13°C° 0.1 mm 5 mps 749 mmHg 89%
    07:00 +13°C° 0.1 mm 5 mps 749 mmHg 89%
    08:00 +13°C° 0 mm 5 mps 750 mmHg 87%
    09:00 +13°C° 0 mm 5 mps 750 mmHg 85%
    10:00 +13°C° 0 mm 5 mps 751 mmHg 84%
    11:00 +13°C° 0 mm 5 mps 751 mmHg 82%
    12:00 +13°C° 0 mm 5 mps 751 mmHg 80%
    13:00 +13°C° 0 mm 5 mps 752 mmHg 78%
    14:00 +14°C° 0 mm 4 mps 752 mmHg 73%
    15:00 +14°C° 0 mm 4 mps 752 mmHg 68%
    16:00 +16°C° 0 mm 3 mps 752 mmHg 64%
    17:00 +14°C° 0 mm 3 mps 752 mmHg 67%
    18:00 +13°C° 0 mm 3 mps 752 mmHg 70%
    19:00 +13°C° 0 mm 2 mps 752 mmHg 73%
    20:00 +13°C° 0 mm 2 mps 753 mmHg 75%
    21:00 +12°C° 0 mm 3 mps 753 mmHg 77%
    22:00 +11°C° 0 mm 3 mps 753 mmHg 78%
    23:00 +11°C° 0 mm 3 mps 753 mmHg 80%
    Show more